AA0FC Weather Reports


Display with metric or nautical units.
time (UTC)temp
F
wind
direction
speed
MPH
gust
MPH
rain 1hr
in
rain 24hr
in
rain mn
in
humidity
%
barometer
mb
20230208143537 20 232 4.0 6.0 0.00 0.00 0.00 80 1017.0
20230208142537 19 232 6.0 7.0 0.00 0.00 0.00 79 1016.8
20230208141540 19 232 4.0 6.0 0.00 0.00 0.00 79 1016.8
20230208140528 19 233 3.0 4.0 0.00 0.00 0.00 79 1016.8
20230208135525 19 233 3.0 4.0 0.00 0.00 0.00 80 1016.8
20230208135018 18 233 3.0 4.0 0.00 0.00 0.00 79 1017.0
20230208133450 19 233 1.0 3.0 0.00 0.00 0.00 79 1017.1
20230208132450 19 233 0.0 3.0 0.00 0.00 0.00 80 1017.1
20230208131454 19 233 1.0 3.0 0.00 0.00 0.00 80 1017.2
20230208130948 19 233 0.0 1.0 0.00 0.00 0.00 80 1017.3
20230208125441 19 233 3.0 6.0 0.00 0.00 0.00 80 1017.3
20230208124434 19 233 4.0 7.0 0.00 0.00 0.00 80 1017.4
20230208123434 19 236 3.0 4.0 0.00 0.00 0.00 80 1017.5
20230208123425 19 237 3.0 4.0 0.00 0.00 0.00 79 1017.9
20230208122418 19 236 4.0 6.0 0.00 0.00 0.00 79 1017.5
20230208120406 19 237 1.0 3.0 0.00 0.00 0.00 79 1018.0
20230208115353 19 237 1.0 3.0 0.00 0.00 0.00 79 1018.1
20230208114328 19 237 0.0 0.0 0.00 0.00 0.00 80 1018.1
20230208113325 19 237 1.0 3.0 0.00 0.00 0.00 80 1018.1
20230208112312 19 237 1.0 3.0 0.00 0.00 0.00 80 1018.1
20230208111249 19 237 0.0 3.0 0.00 0.00 0.00 81 1018.1
20230208110247 19 237 1.0 4.0 0.00 0.00 0.00 81 1018.1
20230208105246 19 237 1.0 4.0 0.00 0.00 0.00 81 1018.4
20230208104226 19 237 4.0 6.0 0.00 0.00 0.00 80 1018.4
20230208104220 19 237 4.0 6.0 0.00 0.00 0.00 80 1018.4
20230208102219 19 237 3.0 4.0 0.00 0.00 0.00 80 1018.4
20230208101156 19 237 4.0 6.0 0.00 0.00 0.00 80 1018.6
20230208100151 19 244 3.0 4.0 0.00 0.00 0.00 80 1018.7
20230208095128 19 251 3.0 6.0 0.00 0.00 0.00 80 1018.7
20230208094128 19 251 3.0 4.0 0.00 0.00 0.00 80 1018.7
20230208093056 20 251 3.0 4.0 0.00 0.00 0.00 80 1018.8
20230208092050 20 251 3.0 6.0 0.00 0.00 0.00 79 1018.8
20230208091044 20 252 3.0 4.0 0.00 0.00 0.00 79 1019.1
20230208091040 20 284 1.0 3.0 0.00 0.00 0.00 79 1019.2
20230208085035 20 284 1.0 3.0 0.00 0.00 0.00 79 1019.2
20230208084031 20 284 1.0 3.0 0.00 0.00 0.00 79 1019.2
20230208083030 21 284 0.0 1.0 0.00 0.00 0.00 78 1019.2
20230208082033 21 284 1.0 3.0 0.00 0.00 0.00 77 1019.5
20230208082028 21 284 0.0 3.0 0.00 0.00 0.00 78 1019.3
20230208080006 21 285 1.0 3.0 0.00 0.00 0.00 77 1019.8
20230208075510 21 14 0.0 3.0 0.00 0.00 0.00 76 1019.9
20230208074505 22 14 0.0 1.0 0.00 0.00 0.00 75 1020.2
20230208073002 22 14 0.0 1.0 0.00 0.00 0.00 74 1020.3
20230208072000 22 14 0.0 0.0 0.00 0.00 0.00 74 1020.5
20230208070958 23 14 0.0 1.0 0.00 0.00 0.00 74 1020.7
20230208070001 23 14 1.0 3.0 0.00 0.00 0.00 74 1020.6
20230208065457 23 14 0.0 3.0 0.00 0.00 0.00 73 1020.7
20230208063949 23 14 0.0 1.0 0.00 0.00 0.00 73 1020.7
20230208063424 23 14 1.0 4.0 0.00 0.00 0.00 74 1020.7
20230208061917 23 344 0.0 6.0 0.00 0.00 0.00 74 1020.6
20230208060905 22 344 1.0 4.0 0.00 0.00 0.00 75 1020.6
20230208055906 22 344 0.0 1.0 0.00 0.00 0.00 75 1020.5
20230208054906 23 344 0.0 3.0 0.00 0.00 0.00 76 1020.5
20230208053901 23 344 0.0 3.0 0.00 0.00 0.00 76 1020.3
20230208052902 23 344 0.0 0.0 0.00 0.00 0.00 76 1020.1
20230208051900 24 344 0.0 0.0 0.00 0.00 0.00 76 1020.1
20230208050903 24 344 0.0 0.0 0.00 0.00 0.00 76 1020.2
20230208050356 24 344 0.0 0.0 0.00 0.00 0.00 75 1020.2
20230208044842 24 344 0.0 0.0 0.00 0.00 0.00 75 1020.3
20230208043844 25 344 0.0 0.0 0.00 0.00 0.00 75 1020.2
20230208042836 25 344 0.0 0.0 0.00 0.00 0.00 75 1020.3
20230208041827 26 344 0.0 0.0 0.00 0.00 0.00 75 1020.5
20230208040813 26 344 0.0 0.0 0.00 0.00 0.00 75 1020.6
20230208035819 26 344 0.0 0.0 0.00 0.00 0.00 74 1020.6
20230208035812 26 344 0.0 0.0 0.00 0.00 0.00 74 1020.7
20230208033806 26 344 0.0 0.0 0.00 0.00 0.00 72 1020.7
20230208032806 27 344 0.0 0.0 0.00 0.00 0.00 72 1020.8
20230208031801 27 344 0.0 0.0 0.00 0.00 0.00 71 1021.0
20230208030801 27 344 0.0 0.0 0.00 0.00 0.00 69 1021.2
20230208030305 28 344 0.0 0.0 0.00 0.00 0.00 69 1021.3
20230208024753 28 344 0.0 0.0 0.00 0.00 0.00 67 1021.4
20230208023739 29 344 0.0 0.0 0.00 0.00 0.00 67 1021.4
20230208022744 29 344 0.0 0.0 0.00 0.00 0.00 66 1021.4
20230208021726 30 344 0.0 3.0 0.00 0.00 0.00 64 1021.4
20230208020710 31 344 0.0 0.0 0.00 0.00 0.00 63 1021.4
20230208015712 32 344 0.0 3.0 0.00 0.00 0.00 62 1021.8
20230208014706 33 344 3.0 4.0 0.00 0.00 0.00 62 1021.8
20230208014137 33 344 3.0 4.0 0.00 0.00 0.00 60 1021.8
20230208012639 34 344 1.0 6.0 0.00 0.00 0.00 58 1021.9
20230208011632 35 344 1.0 6.0 0.00 0.00 0.00 56 1021.9
20230208010631 36 344 3.0 4.0 0.00 0.00 0.00 54 1021.9
20230208005632 38 293 1.0 6.0 0.00 0.00 0.00 44 1021.8
20230208005628 37 344 3.0 8.0 0.00 0.00 0.00 50 1021.9
20230208003629 39 329 1.0 6.0 0.00 0.00 0.00 42 1021.8
20230208002626 40 58 1.0 4.0 0.00 0.00 0.00 39 1021.4
20230208001616 41 15 1.0 3.0 0.00 0.00 0.00 36 1021.3
20230208001115 42 69 3.0 6.0 0.00 0.00 0.00 34 1021.4
20230207235614 43 55 3.0 8.0 0.00 0.00 0.00 32 1021.3
20230207234613 44 11 4.0 8.0 0.00 0.00 0.00 31 1021.2
20230207233609 45 85 4.0 10.0 0.00 0.00 0.00 31 1021.0
20230207233043 46 57 3.0 11.0 0.00 0.00 0.00 30 1020.9
20230207231540 47 35 6.0 10.0 0.00 0.00 0.00 30 1020.8
20230207230528 47 93 6.0 10.0 0.00 0.00 0.00 30 1020.7
20230207230027 48 89 6.0 10.0 0.00 0.00 0.00 27 1020.6
20230207224503 47 95 6.0 13.0 0.00 0.00 0.00 27 1020.6
20230207223502 48 22 6.0 11.0 0.00 0.00 0.00 27 1020.5
20230207222432 49 13 6.0 13.0 0.00 0.00 0.00 27 1020.5
20230207221930 49 125 4.0 8.0 0.00 0.00 0.00 23 1020.3
20230207220420 49 71 6.0 13.0 0.00 0.00 0.00 26 1020.3
20230207215417 50 100 4.0 11.0 0.00 0.00 0.00 24 1020.3
20230207214409 50 115 4.0 8.0 0.00 0.00 0.00 21 1020.3
20230207213403 50 102 6.0 10.0 0.00 0.00 0.00 20 1020.3
20230207212403 50 66 4.0 7.0 0.00 0.00 0.00 21 1020.3
20230207211404 50 163 4.0 13.0 0.00 0.00 0.00 21 1020.2
20230207210336 50 211 4.0 8.0 0.00 0.00 0.00 21 1020.2
20230207205835 50 230 6.0 10.0 0.00 0.00 0.00 21 1020.3
20230207204324 50 181 6.0 10.0 0.00 0.00 0.00 22 1020.6
20230207203325 50 165 4.0 8.0 0.00 0.00 0.00 24 1020.7
20230207202320 49 160 6.0 13.0 0.00 0.00 0.00 21 1020.8
20230207201318 49 204 4.0 8.0 0.00 0.00 0.00 22 1020.9
20230207200319 49 158 6.0 10.0 0.00 0.00 0.00 22 1021.2
20230207195820 48 107 6.0 10.0 0.00 0.00 0.00 21 1021.3
20230207194318 48 133 6.0 10.0 0.00 0.00 0.00 23 1021.3
20230207193317 48 115 6.0 11.0 0.00 0.00 0.00 25 1021.5
20230207192317 48 121 6.0 13.0 0.00 0.00 0.00 22 1021.6
20230207191317 48 178 6.0 11.0 0.00 0.00 0.00 23 1021.9
20230207190752 47 161 6.0 13.0 0.00 0.00 0.00 25 1021.8
20230207185251 47 135 7.0 13.0 0.00 0.00 0.00 25 1022.0
20230207184245 47 143 6.0 11.0 0.00 0.00 0.00 23 1022.3
20230207183243 47 150 7.0 13.0 0.00 0.00 0.00 25 1022.5
20230207182733 47 155 7.0 11.0 0.00 0.00 0.00 26 1022.6
20230207181209 46 154 6.0 13.0 0.00 0.00 0.00 27 1022.6
20230207180207 46 139 7.0 13.0 0.00 0.00 0.00 27 1022.7
20230207175206 45 121 6.0 13.0 0.00 0.00 0.00 26 1022.7
20230207174203 45 171 6.0 11.0 0.00 0.00 0.00 28 1022.6
20230207173202 44 192 6.0 13.0 0.00 0.00 0.00 29 1022.6
20230207172204 44 143 4.0 11.0 0.00 0.00 0.00 29 1022.5
20230207171157 44 146 6.0 8.0 0.00 0.00 0.00 30 1022.5
20230207170152 44 153 4.0 7.0 0.00 0.00 0.00 32 1022.5
20230207165146 42 159 4.0 8.0 0.00 0.00 0.00 34 1022.3
20230207165121 40 154 3.0 6.0 0.00 0.00 0.00 38 1022.5
20230207163118 40 164 4.0 6.0 0.00 0.00 0.00 37 1022.5
20230207162117 39 152 4.0 6.0 0.00 0.00 0.00 39 1022.5
20230207161111 38 142 4.0 6.0 0.00 0.00 0.00 41 1022.5
20230207160110 37 126 3.0 4.0 0.00 0.00 0.00 44 1022.3
20230207155111 35 158 3.0 4.0 0.00 0.00 0.00 46 1022.2
20230207154108 34 157 3.0 4.0 0.00 0.00 0.00 51 1022.1
20230207153112 29 156 3.0 6.0 0.00 0.00 0.00 65 1022.2
20230207152108 26 178 3.0 6.0 0.00 0.00 0.00 69 1022.0
20230207151045 23 165 1.0 4.0 0.00 0.00 0.00 73 1022.0
20230207150032 22 164 1.0 4.0 0.00 0.00 0.00 73 1022.0
20230207145028 21 240 0.0 0.0 0.00 0.00 0.00 73 1021.9
20230207144004 20 240 0.0 0.0 0.00 0.00 0.00 73 1021.8